Dublin, Ireland

10:08 AM GMT on November 25, 2017 (GMT +0000)
Dublin International

Weather History for EIDW - October, 2012

Change the Weather History Date:

Monday, October 22, 2012

  Actual Average Record
Temperature  
Mean Temperature 48 °F -  
Max Temperature 57 °F 52 °F 66 °F (1996)
Min Temperature 40 °F 42 °F 33 °F (2003)
Degree Days  
Heating Degree Days 16    
Moisture  
Dew Point 48 °F    
Average Humidity 93    
Maximum Humidity 100    
Minimum Humidity 74    
Precipitation  
Precipitation 0.00 in 0.09 in - ()
Sea Level Pressure  
Sea Level Pressure 30.18 in    
Wind  
Wind Speed 6 mph ()    
Max Wind Speed 9 mph    
Max Gust Speed -    
Visibility 6.1 miles    
Events Fog    
Averages and records for this station are not official NWS values.
T = Trace of Precipitation, MM = Missing Value Source: Averaged Metar Reports

Daily Weather History Graph

Daily Weather History Graph

Search for Another Location

Airport or City:

Trip Planner

Search our weather history database for the weather conditions in past years. The results will help you decide how hot, cold, wet, or windy it might be!

Date:

Astronomy

Oct. 22, 2012 Rise Set
Actual Time 8:05 AM IST 6:12 PM IST
Civil Twilight 7:29 AM IST 6:48 PM IST
Nautical Twilight 6:49 AM IST 7:28 PM IST
Astronomical Twilight 6:08 AM IST 8:08 PM IST
Moon 3:06 PM IST (10/22) No Moon Set
Length of Visible Light 11h 18m
Length of Day
10h 06m
First Quarter, 53% of the Moon is Illuminated
Oct 22
First Quarter
Oct 29
Full
Nov 7
Last Quarter
Nov 13
New
Nov 20
First Quarter

Hourly Weather History & Observations

Time (IST) Temp. Windchill Dew Point Humidity Pressure Visibility Wind Dir Wind Speed Gust Speed Precip Events Conditions
12:00 AM 44.6 °F 40.2 °F 44.6 °F 100% 30.12 in 6.2 mi ESE 8.1 mph - N/A   Scattered Clouds
12:30 AM 44.6 °F 40.2 °F 44.6 °F 100% 30.12 in 6.2 mi East 8.1 mph - N/A   Scattered Clouds
1:00 AM 43 °F - 42 °F 97% 30.14 in 10 mi East 6.7 mph - -   Scattered Clouds
1:00 AM 42.8 °F 38.6 °F 42.8 °F 100% 30.12 in 6.2 mi East 6.9 mph - N/A   Mostly Cloudy
1:30 AM 46.4 °F 44.3 °F 46.4 °F 100% 30.12 in 6.2 mi SE 4.6 mph - N/A   Mostly Cloudy
2:00 AM 42.8 °F 41.1 °F 41.0 °F 93% 30.12 in 6.2 mi SSE 3.5 mph - N/A   Mostly Cloudy
2:30 AM 44.6 °F - 42.8 °F 93% 30.12 in 6.2 mi Variable 2.3 mph - N/A   Mostly Cloudy
3:00 AM 44.6 °F 42.2 °F 42.8 °F 93% 30.12 in 6.2 mi North 4.6 mph - N/A   Mostly Cloudy
3:30 AM 42.8 °F 41.1 °F 42.8 °F 100% 30.12 in 6.2 mi North 3.5 mph - N/A   Mostly Cloudy
4:00 AM 44.6 °F 43.1 °F 44.6 °F 100% 30.12 in 6.2 mi North 3.5 mph - N/A   Mostly Cloudy
4:30 AM 44.6 °F 43.1 °F 42.8 °F 93% 30.12 in 6.2 mi NE 3.5 mph - N/A   Mostly Cloudy
5:00 AM 42.8 °F 41.1 °F 41.0 °F 93% 30.12 in 3.1 mi NE 3.5 mph - N/A Fog Patches of Fog
5:30 AM 42.8 °F 40.1 °F 42.8 °F 100% 30.12 in 3.7 mi ENE 4.6 mph - N/A Fog Patches of Fog
6:00 AM 42.8 °F - 42.8 °F 100% 30.12 in 3.7 mi Variable 1.2 mph - N/A Fog Patches of Fog
6:30 AM 42.8 °F 40.1 °F 42.8 °F 100% 30.15 in 3.1 mi NNE 4.6 mph - N/A Fog Patches of Fog
7:00 AM 44 °F - 43 °F 97% 30.17 in 5 mi NE 6.7 mph - - Fog Patches of Fog
7:00 AM 44.6 °F 41.4 °F 42.8 °F 93% 30.15 in 5.0 mi NNE 5.8 mph - N/A Fog Patches of Fog
7:30 AM 50.0 °F - 48.2 °F 94% 30.15 in 6.2 mi East 6.9 mph - N/A   Mostly Cloudy
8:00 AM 50.0 °F - 48.2 °F 94% 30.15 in 5.0 mi ENE 4.6 mph - N/A   Mostly Cloudy
8:30 AM 50.0 °F - 48.2 °F 94% 30.15 in 6.2 mi East 4.6 mph - N/A   Mostly Cloudy
9:00 AM 50.0 °F - 48.2 °F 94% 30.15 in 6.2 mi East 5.8 mph - N/A   Partly Cloudy
9:30 AM 50.0 °F - 48.2 °F 94% 30.15 in 6.2 mi East 4.6 mph - N/A   Partly Cloudy
10:00 AM 51.8 °F - 50.0 °F 94% 30.18 in 6.2 mi East 4.6 mph - N/A   Scattered Clouds
10:30 AM 51.8 °F - 50.0 °F 94% 30.18 in 6.2 mi ENE 4.6 mph - N/A   Mostly Cloudy
11:00 AM 53.6 °F - 51.8 °F 94% 30.18 in 6.2 mi ESE 5.8 mph - N/A   Mostly Cloudy
11:30 AM 53.6 °F - 51.8 °F 94% 30.18 in 6.2 mi East 8.1 mph - N/A   Mostly Cloudy
12:00 PM 55.4 °F - 51.8 °F 88% 30.18 in 6.2 mi ESE 9.2 mph - N/A   Mostly Cloudy
12:30 PM 53.6 °F - 50.0 °F 88% 30.18 in 6.2 mi East 8.1 mph - N/A   Mostly Cloudy
1:00 PM 57 °F - 51 °F 74% 30.19 in 11 mi ENE 6.7 mph - -   Partly Cloudy
1:00 PM 57.2 °F - 50.0 °F 77% 30.18 in 6.2 mi ENE 6.9 mph - N/A   Mostly Cloudy
1:30 PM 57.2 °F - 50.0 °F 77% 30.18 in 6.2 mi ENE 6.9 mph - N/A   Mostly Cloudy
2:00 PM 55.4 °F - 50.0 °F 82% 30.18 in 6.2 mi ENE 6.9 mph - N/A   Mostly Cloudy
2:30 PM 57.2 °F - 50.0 °F 77% 30.18 in 6.2 mi ENE 8.1 mph - N/A   Mostly Cloudy
3:00 PM 55.4 °F - 51.8 °F 88% 30.18 in 6.2 mi ENE 9.2 mph - N/A   Mostly Cloudy
3:30 PM 55.4 °F - 51.8 °F 88% 30.21 in 6.2 mi East 9.2 mph - N/A   Mostly Cloudy
4:00 PM 55.4 °F - 51.8 °F 88% 30.18 in 6.2 mi ENE 8.1 mph - N/A   Mostly Cloudy
4:30 PM 53.6 °F - 51.8 °F 94% 30.18 in 6.2 mi ENE 9.2 mph - N/A   Mostly Cloudy
5:00 PM 53.6 °F - 51.8 °F 94% 30.18 in 6.2 mi ENE 9.2 mph - N/A   Mostly Cloudy
5:30 PM 53.6 °F - 51.8 °F 94% 30.21 in 6.2 mi ENE 8.1 mph - N/A   Mostly Cloudy
6:00 PM 53.6 °F - 51.8 °F 94% 30.21 in 6.2 mi ENE 6.9 mph - N/A   Mostly Cloudy
6:30 PM 53.6 °F - 51.8 °F 94% 30.21 in 6.2 mi ENE 5.8 mph - N/A   Mostly Cloudy
7:00 PM 53 °F - 51 °F 92% 30.24 in 11 mi ENE 6.7 mph - -   Partly Cloudy
7:00 PM 53.6 °F - 51.8 °F 94% 30.21 in 6.2 mi ENE 5.8 mph - N/A   Mostly Cloudy
7:30 PM 53.6 °F - 51.8 °F 94% 30.21 in 6.2 mi ENE 6.9 mph - N/A   Mostly Cloudy
8:00 PM 53.6 °F - 51.8 °F 94% 30.24 in 3.7 mi ENE 6.9 mph - N/A   Light Drizzle
8:30 PM 53.6 °F - 51.8 °F 94% 30.24 in 6.2 mi ENE 6.9 mph - N/A   Mostly Cloudy
9:00 PM 53.6 °F - 51.8 °F 94% 30.24 in 6.2 mi ENE 8.1 mph - N/A   Mostly Cloudy
9:30 PM 53.6 °F - 51.8 °F 94% 30.24 in 6.2 mi ENE 8.1 mph - N/A   Mostly Cloudy
10:00 PM 53.6 °F - 51.8 °F 94% 30.24 in 6.2 mi ENE 8.1 mph - N/A   Overcast
10:30 PM 53.6 °F - 51.8 °F 94% 30.27 in 6.2 mi ENE 6.9 mph - N/A   Overcast
11:00 PM 53.6 °F - 51.8 °F 94% 30.27 in 6.2 mi ENE 6.9 mph - N/A   Overcast
11:30 PM 53.6 °F - 51.8 °F 94% 30.27 in 6.2 mi NE 6.9 mph - N/A   Overcast